This is the latest recevied weather packets stored in our database for station/object W2JBO-5. If no packets are shown the sender has not sent any weather packets the latest 10 day(s).
| Time | Temp. | Humidity | Pressure | Rain* | Wind** | Luminosity | Snow |
|---|---|---|---|---|---|---|---|
| 1777632266 | 17.22° C | 99% | 1010.7 hPa | 0 mm | - | 0 W/m² | - |
| 1777631962 | 17.22° C | 99% | 1011.2 hPa | 0 mm | - | 0 W/m² | - |
| 1777631661 | 17.22° C | 99% | 1011.2 hPa | 0 mm | - | 0 W/m² | - |
| 1777631358 | 17.22° C | 99% | 1011.1 hPa | 0 mm | - | 0 W/m² | - |
| 1777631055 | 17.22° C | 99% | 1011.4 hPa | 1.78 mm | - | 0 W/m² | - |
| 1777630751 | 17.22° C | 99% | 1011.4 hPa | 1.78 mm | - | 0 W/m² | - |
| 1777630448 | 17.22° C | 99% | 1011.1 hPa | 0 mm | - | 0 W/m² | - |
| 1777630145 | 17.22° C | 99% | 1011.8 hPa | 0 mm | - | 0 W/m² | - |
| 1777629843 | 17.78° C | 99% | 1011.8 hPa | 0 mm | - | 0 W/m² | - |
| 1777629539 | 17.78° C | 99% | 1012.1 hPa | 0 mm | - | 0 W/m² | - |
| 1777629235 | 17.78° C | 99% | 1012.1 hPa | 1.27 mm | - | 0 W/m² | - |
| 1777628931 | 17.78° C | 99% | 1012.1 hPa | 3.05 mm | - | 0 W/m² | - |
| 1777628629 | 17.78° C | 99% | 1012.2 hPa | 0 mm | - | 0 W/m² | - |
| 1777628324 | 17.78° C | 99% | 1012.2 hPa | 1.27 mm | - | 0 W/m² | - |
| 1777628021 | 17.78° C | 99% | 1011.8 hPa | 1.27 mm | - | 0 W/m² | - |
| 1777627720 | 17.78° C | 99% | 1011.8 hPa | 0 mm | - | 0 W/m² | - |
| 1777627419 | 17.78° C | 99% | 1011.8 hPa | 3.05 mm | - | 0 W/m² | - |
| 1777627116 | 17.78° C | 99% | 1012.4 hPa | 1.27 mm | - | 0 W/m² | - |
| 1777626813 | 17.78° C | 99% | 1012.8 hPa | 1.78 mm | - | 0 W/m² | - |
| 1777626508 | 17.78° C | 99% | 1012.6 hPa | 0 mm | - | 0 W/m² | - |
| 1777626203 | 17.78° C | 99% | 1012.1 hPa | 0 mm | - | 0 W/m² | - |
| 1777625902 | 17.78° C | 99% | 1011.5 hPa | 0 mm | - | 0 W/m² | - |
| 1777625598 | 17.78° C | 99% | 1011.5 hPa | 0 mm | - | 0 W/m² | - |
| 1777625293 | 17.22° C | 99% | 1011.6 hPa | 0 mm | - | 0 W/m² | - |
| 1777624990 | 17.22° C | 99% | 1011.3 hPa | 1.27 mm | - | 0 W/m² | - |
* Rain latest hour (hover to see other rain measurements)
** Current wind speed in m/s (hover to see current wind gust speed)